Location: Lac Lasalle
(46.0398°N, 74.1576°W)
Time: 00:01:26
(UTC-05:00)

SEEDS - Pass Details

Date: 20 December 2019
Orbit: 586 x 603 km, 97.5° (Epoch: 20 January)

Event Time Altitude Azimuth Distance (km) Brightness Sun altitude
Rises 05:17:57 0° 20° (NNE) 2,861 ? -22.7°
Reaches altitude 10° 05:20:16 10° 28° (NNE) 1,955 ? -22.3°
Maximum altitude 05:24:14 37° 97° (E) 937 ? -21.6°
Drops below altitude 10° 05:28:10 10° 166° (SSE) 1,943 ? -21.0°
Sets 05:30:27 0° 174° (S) 2,842 ? -20.6°
